Carbondale, IL

4:43 PM CDT on September 24, 2017 (GMT -0500)
Southern Illinois

Weather History for KMDH - February, 2012

Change the Weather History Date:

Thursday, February 16, 2012

  Actual Average Record
Temperature  
Mean Temperature 40 °F -  
Max Temperature 48 °F 47 °F 77 °F (1911)
Min Temperature 30 °F 26 °F 0 °F (1958)
Degree Days  
Heating Degree Days 25    
Moisture  
Dew Point 40 °F    
Average Humidity 89    
Maximum Humidity 100    
Minimum Humidity 68    
Precipitation  
Precipitation 0.03 in - - ()
Sea Level Pressure  
Sea Level Pressure 30.14 in    
Wind  
Wind Speed 4 mph (NW)    
Max Wind Speed 15 mph    
Max Gust Speed -    
Visibility 5 miles    
Events Fog , Rain    
Averages and records for this station are not official NWS values.
T = Trace of Precipitation, MM = Missing Value Source: NWS Daily Summary

Daily Weather History Graph

Daily Weather History Graph

Search for Another Location

Airport or City:

Trip Planner

Search our weather history database for the weather conditions in past years. The results will help you decide how hot, cold, wet, or windy it might be!

Date:

Astronomy

Feb. 16, 2012 Rise Set
Actual Time 6:46 AM CST 5:36 PM CST
Civil Twilight 6:19 AM CST 6:03 PM CST
Nautical Twilight 5:48 AM CST 6:34 PM CST
Astronomical Twilight 5:18 AM CST 7:04 PM CST
Moon 2:38 AM CST (2/16) 12:31 PM CST (2/16)
Length of Visible Light 11h 44m
Length of Day
10h 50m
Waning Crescent, 28% of the Moon is Illuminated
Feb 16
Waning Crescent
Feb 21
New
Feb 29
First Quarter
Mar 8
Full
Mar 14
Last Quarter

Hourly Weather History & Observations

Time (CST) Temp. Windchill Dew Point Humidity Pressure Visibility Wind Dir Wind Speed Gust Speed Precip Events Conditions
12:07 AM 44.6 °F 42.2 °F 44.6 °F 100% 29.97 in 0.2 mi East 4.6 mph - 0.01 in Fog Fog
12:17 AM 44.6 °F 43.1 °F 44.6 °F 100% 29.97 in 0.5 mi ESE 3.5 mph - 0.01 in Fog Fog
12:52 AM 46.0 °F - 45.0 °F 96% 29.98 in 0.5 mi Calm Calm - 0.01 in Fog Fog
1:52 AM 45.0 °F - 44.1 °F 97% 29.97 in 0.5 mi Calm Calm - 0.01 in Fog Fog
2:21 AM 44.6 °F - 44.6 °F 100% 29.98 in 0.5 mi Calm Calm - 0.00 in Fog , Rain Light Rain
2:52 AM 46.0 °F - 45.0 °F 96% 29.99 in 1.0 mi Calm Calm - 0.01 in   Overcast
2:59 AM 46.4 °F - 44.6 °F 93% 29.98 in 0.8 mi Calm Calm - N/A   Overcast
3:09 AM 44.6 °F - 44.6 °F 100% 29.98 in 0.5 mi Calm Calm - N/A Fog Fog
3:21 AM 46.4 °F 44.3 °F 44.6 °F 93% 29.99 in 2.0 mi West 4.6 mph - N/A   Overcast
3:29 AM 46.4 °F 44.3 °F 46.4 °F 100% 29.99 in 3.0 mi West 4.6 mph - N/A   Overcast
3:52 AM 46.0 °F 44.8 °F 46.0 °F 100% 29.99 in 4.0 mi West 3.5 mph - N/A   Overcast
4:11 AM 46.4 °F 45.2 °F 46.4 °F 100% 30.00 in 4.0 mi West 3.5 mph - N/A   Overcast
4:36 AM 46.4 °F 44.3 °F 44.6 °F 93% 30.01 in 5.0 mi WNW 4.6 mph - N/A   Overcast
4:52 AM 46.0 °F 42.5 °F 45.0 °F 96% 30.03 in 10.0 mi WNW 6.9 mph - N/A   Overcast
5:52 AM 46.0 °F 42.5 °F 44.1 °F 93% 30.06 in 10.0 mi WNW 6.9 mph - N/A   Overcast
6:52 AM 46.0 °F 41.9 °F 44.1 °F 93% 30.09 in 10.0 mi WNW 8.1 mph - N/A   Overcast
7:35 AM 46.4 °F 42.4 °F 42.8 °F 87% 30.12 in 10.0 mi WNW 8.1 mph - N/A   Overcast
7:43 AM 46.4 °F 42.9 °F 44.6 °F 93% 30.12 in 10.0 mi NW 6.9 mph - N/A   Overcast
7:52 AM 46.0 °F 42.5 °F 44.1 °F 93% 30.13 in 10.0 mi NW 6.9 mph - N/A   Overcast
8:52 AM 46.9 °F - 44.1 °F 90% 30.16 in 10.0 mi NW 6.9 mph - N/A   Overcast
9:52 AM 46.0 °F 39.6 °F 41.0 °F 83% 30.20 in 9.0 mi NW 15.0 mph - N/A   Overcast
10:30 AM 46.4 °F 40.1 °F 39.2 °F 76% 30.20 in 8.0 mi NNW 15.0 mph - N/A   Overcast
10:52 AM 46.9 °F - 41.0 °F 80% 30.19 in 7.0 mi NNW 12.7 mph - N/A   Overcast
11:52 AM 46.9 °F - 41.0 °F 80% 30.21 in 6.0 mi NNW 10.4 mph - N/A   Haze
12:52 PM 46.9 °F - 39.9 °F 77% 30.21 in 7.0 mi NW 9.2 mph - N/A   Overcast
1:52 PM 46.9 °F - 39.0 °F 74% 30.21 in 6.0 mi NW 12.7 mph - N/A   Haze
2:52 PM 46.9 °F - 39.0 °F 74% 30.22 in 7.0 mi NW 8.1 mph - N/A   Overcast
3:52 PM 48.0 °F - 37.9 °F 68% 30.21 in 7.0 mi NW 10.4 mph - N/A   Overcast
4:52 PM 46.9 °F - 37.0 °F 68% 30.21 in 7.0 mi NNW 9.2 mph - N/A   Overcast
5:29 PM 44.6 °F 41.4 °F 37.4 °F 76% 30.20 in 6.0 mi North 5.8 mph - N/A   Haze
5:52 PM 44.1 °F 40.8 °F 37.0 °F 76% 30.21 in 6.0 mi NNW 5.8 mph - N/A   Haze
6:52 PM 42.1 °F 37.1 °F 37.0 °F 82% 30.25 in 6.0 mi NW 8.1 mph - N/A   Haze
7:52 PM 41.0 °F 39.0 °F 36.0 °F 82% 30.27 in 6.0 mi NW 3.5 mph - N/A   Haze
8:52 PM 37.9 °F - 35.1 °F 89% 30.25 in 5.0 mi Calm Calm - N/A   Clear
9:45 PM 35.6 °F - 33.8 °F 93% 30.24 in 2.5 mi Calm Calm - N/A   Clear
9:52 PM 35.1 °F - 33.1 °F 92% 30.25 in 2.5 mi Calm Calm - N/A   Clear
10:18 PM 32.0 °F - 30.2 °F 93% 30.24 in 1.2 mi Calm Calm - N/A   Clear
10:47 PM 33.8 °F - 32.0 °F 93% 30.24 in 0.5 mi Calm Calm - N/A Fog Fog
10:52 PM 33.1 °F - 32.0 °F 96% 30.25 in 0.5 mi Calm Calm - N/A Fog Fog
10:57 PM 33.8 °F - 32.0 °F 93% 30.25 in 1.2 mi Calm Calm - N/A   Clear
11:34 PM 32.0 °F - 30.2 °F 93% 30.26 in 0.8 mi Calm Calm - N/A   Clear
11:43 PM 32.0 °F - 30.2 °F 93% 30.26 in 1.2 mi Calm Calm - N/A   Clear
11:52 PM 30.9 °F - 30.9 °F 100% 30.27 in 0.8 mi Calm Calm - N/A   Clear